• In Netherlands
  • List of Countries
  • For 7 days
  • Water Temperature
  • Satellite Maps
  • Weather Map
  • Weather Widgets
  • user-avatar
    Login

    Hourly Weather Melbourne

    Today, 24 January, Tuesday

    Time Temperature Precipitation Wind Pressure Humidity
    00:00 +23°C° 0.3 mm 2 mps 751 mmHg 85%
    01:00 +23°C° 0.3 mm 2 mps 751 mmHg 88%
    02:00 +23°C° 0 mm 2 mps 752 mmHg 88%
    03:00 +22°C° 0 mm 3 mps 752 mmHg 88%
    04:00 +22°C° 0 mm 4 mps 752 mmHg 88%
    05:00 +22°C° 0 mm 4 mps 754 mmHg 83%
    06:00 +21°C° 0 mm 4 mps 755 mmHg 79%
    07:00 +20°C° 0 mm 4 mps 756 mmHg 75%
    08:00 +20°C° 0 mm 4 mps 757 mmHg 68%
    09:00 +20°C° 0 mm 4 mps 757 mmHg 62%
    10:00 +21°C° 0 mm 5 mps 758 mmHg 52%
    11:00 +22°C° 0 mm 5 mps 759 mmHg 49%
    12:00 +22°C° 0 mm 4 mps 759 mmHg 45%
    13:00 +23°C° 0 mm 4 mps 759 mmHg 42%
    14:00 +23°C° 0 mm 4 mps 759 mmHg 42%
    15:00 +23°C° 0 mm 4 mps 760 mmHg 42%
    16:00 +22°C° 0 mm 5 mps 760 mmHg 43%
    17:00 +21°C° 0 mm 4 mps 761 mmHg 48%
    18:00 +20°C° 0 mm 4 mps 762 mmHg 52%
    19:00 +18°C° 0 mm 3 mps 762 mmHg 56%
    20:00 +17°C° 0 mm 3 mps 763 mmHg 62%
    21:00 +16°C° 0 mm 3 mps 763 mmHg 68%
    22:00 +14°C° 0 mm 2 mps 764 mmHg 74%
    23:00 +14°C° 0 mm 2 mps 764 mmHg 76%

    Tomorrow, 25 January, Wednesday

    Time Temperature Precipitation Wind Pressure Humidity
    00:00 +14°C° 0 mm 2 mps 764 mmHg 77%
    01:00 +13°C° 0 mm 2 mps 764 mmHg 79%
    02:00 +13°C° 0 mm 2 mps 764 mmHg 81%
    03:00 +13°C° 0 mm 1 mps 763 mmHg 83%
    04:00 +12°C° 0 mm 1 mps 763 mmHg 84%
    05:00 +13°C° 0 mm 1 mps 763 mmHg 80%
    06:00 +14°C° 0 mm 1 mps 763 mmHg 76%
    07:00 +15°C° 0 mm 1 mps 763 mmHg 72%
    08:00 +18°C° 0 mm 1 mps 763 mmHg 64%
    09:00 +19°C° 0 mm 2 mps 763 mmHg 55%
    10:00 +21°C° 0 mm 2 mps 763 mmHg 46%
    11:00 +23°C° 0 mm 2 mps 763 mmHg 43%
    12:00 +24°C° 0 mm 2 mps 762 mmHg 39%
    13:00 +25°C° 0 mm 3 mps 762 mmHg 36%
    14:00 +25°C° 0 mm 3 mps 761 mmHg 36%
    15:00 +25°C° 0 mm 3 mps 761 mmHg 37%
    16:00 +26°C° 0 mm 3 mps 761 mmHg 38%
    17:00 +24°C° 0 mm 3 mps 761 mmHg 45%
    18:00 +21°C° 0 mm 3 mps 761 mmHg 52%
    19:00 +20°C° 0 mm 3 mps 761 mmHg 60%
    20:00 +18°C° 0 mm 3 mps 762 mmHg 69%
    21:00 +16°C° 0 mm 2 mps 762 mmHg 78%
    22:00 +15°C° 0 mm 2 mps 763 mmHg 87%
    23:00 +14°C° 0 mm 2 mps 762 mmHg 88%

    Day after tomorrow, 26 January, Thursday

    Time Temperature Precipitation Wind Pressure Humidity
    00:00 +14°C° 0 mm 2 mps 762 mmHg 89%
    01:00 +14°C° 0 mm 1 mps 762 mmHg 90%
    02:00 +14°C° 0 mm 1 mps 762 mmHg 91%
    03:00 +14°C° 0 mm 1 mps 762 mmHg 92%
    04:00 +14°C° 0 mm 1 mps 761 mmHg 93%
    05:00 +14°C° 0 mm 1 mps 762 mmHg 90%
    06:00 +15°C° 0 mm 2 mps 762 mmHg 87%
    07:00 +16°C° 0 mm 2 mps 762 mmHg 84%
    08:00 +17°C° 0 mm 2 mps 762 mmHg 78%
    09:00 +19°C° 0 mm 2 mps 762 mmHg 72%
    10:00 +20°C° 0 mm 2 mps 762 mmHg 66%
    11:00 +21°C° 0 mm 2 mps 762 mmHg 60%
    12:00 +24°C° 0 mm 2 mps 762 mmHg 55%
    13:00 +25°C° 0 mm 2 mps 761 mmHg 50%
    14:00 +25°C° 0 mm 3 mps 761 mmHg 49%
    15:00 +26°C° 0 mm 3 mps 761 mmHg 48%
    16:00 +26°C° 0 mm 3 mps 760 mmHg 47%
    17:00 +24°C° 0 mm 3 mps 760 mmHg 54%
    18:00 +22°C° 0 mm 3 mps 761 mmHg 60%
    19:00 +20°C° 0 mm 3 mps 761 mmHg 67%
    20:00 +19°C° 0 mm 2 mps 761 mmHg 75%
    21:00 +17°C° 0 mm 2 mps 762 mmHg 83%
    22:00 +16°C° 0 mm 2 mps 762 mmHg 91%
    23:00 +15°C° 0 mm 2 mps 762 mmHg 91%

    27 January, Friday

    Time Temperature Precipitation Wind Pressure Humidity
    00:00 +15°C° 0 mm 1 mps 761 mmHg 91%
    01:00 +15°C° 0 mm 1 mps 761 mmHg 91%
    02:00 +15°C° 0 mm 1 mps 761 mmHg 91%
    03:00 +14°C° 0 mm 1 mps 761 mmHg 92%
    04:00 +14°C° 0 mm 1 mps 761 mmHg 92%
    05:00 +15°C° 0 mm 1 mps 761 mmHg 90%
    06:00 +16°C° 0 mm 1 mps 761 mmHg 87%
    07:00 +15°C° 0 mm 0 mps 762 mmHg 84%
    08:00 +18°C° 0 mm 0 mps 761 mmHg 72%
    09:00 +23°C° 0 mm 1 mps 761 mmHg 60%
    10:00 +25°C° 0 mm 1 mps 761 mmHg 48%
    11:00 +27°C° 0 mm 1 mps 760 mmHg 43%
    12:00 +29°C° 0 mm 1 mps 760 mmHg 37%
    13:00 +30°C° 0 mm 2 mps 759 mmHg 32%
    14:00 +30°C° 0 mm 2 mps 759 mmHg 33%
    15:00 +30°C° 0 mm 2 mps 758 mmHg 34%
    16:00 +30°C° 0 mm 3 mps 758 mmHg 34%
    17:00 +28°C° 0 mm 3 mps 758 mmHg 42%
    18:00 +26°C° 0 mm 2 mps 758 mmHg 49%
    19:00 +24°C° 0 mm 2 mps 758 mmHg 57%
    20:00 +21°C° 0 mm 2 mps 758 mmHg 66%
    21:00 +19°C° 0 mm 2 mps 759 mmHg 75%
    22:00 +18°C° 0 mm 1 mps 759 mmHg 84%
    23:00 +16°C° 0 mm 1 mps 759 mmHg 87%

    28 January, Saturday

    Time Temperature Precipitation Wind Pressure Humidity
    00:00 +15°C° 0 mm 1 mps 758 mmHg 90%
    01:00 +15°C° 0 mm 1 mps 758 mmHg 94%
    02:00 +13°C° 0 mm 0 mps 758 mmHg 94%
    03:00 +13°C° 0 mm 0 mps 757 mmHg 95%
    04:00 +12°C° 0 mm 0 mps 757 mmHg 96%
    05:00 +14°C° 0 mm 0 mps 757 mmHg 86%
    06:00 +19°C° 0 mm 1 mps 758 mmHg 75%
    07:00 +21°C° 0 mm 1 mps 758 mmHg 65%
    08:00 +25°C° 0 mm 1 mps 758 mmHg 53%
    09:00 +28°C° 0 mm 1 mps 758 mmHg 40%
    10:00 +32°C° 0 mm 2 mps 758 mmHg 28%
    11:00 +34°C° 0 mm 2 mps 758 mmHg 26%
    12:00 +35°C° 0 mm 3 mps 758 mmHg 23%
    13:00 +36°C° 0 mm 3 mps 757 mmHg 21%
    14:00 +35°C° 0 mm 3 mps 757 mmHg 24%
    15:00 +34°C° 0 mm 4 mps 757 mmHg 27%
    16:00 +33°C° 0 mm 4 mps 757 mmHg 30%
    17:00 +30°C° 0 mm 3 mps 757 mmHg 38%
    18:00 +27°C° 0 mm 3 mps 758 mmHg 47%
    19:00 +25°C° 0 mm 3 mps 758 mmHg 55%
    20:00 +23°C° 0 mm 2 mps 759 mmHg 62%
    21:00 +20°C° 0 mm 2 mps 760 mmHg 68%
    22:00 +18°C° 0 mm 2 mps 760 mmHg 75%
    23:00 +18°C° 0 mm 1 mps 760 mmHg 79%

    29 January, Sunday

    Time Temperature Precipitation Wind Pressure Humidity
    00:00 +16°C° 0 mm 1 mps 760 mmHg 83%
    01:00 +16°C° 0 mm 1 mps 760 mmHg 87%
    02:00 +15°C° 0 mm 1 mps 760 mmHg 89%
    03:00 +15°C° 0 mm 1 mps 760 mmHg 91%
    04:00 +15°C° 0 mm 1 mps 760 mmHg 93%
    05:00 +16°C° 0 mm 1 mps 760 mmHg 89%
    06:00 +18°C° 0 mm 1 mps 761 mmHg 85%
    07:00 +19°C° 0 mm 1 mps 761 mmHg 81%
    08:00 +21°C° 0 mm 1 mps 761 mmHg 71%
    09:00 +24°C° 0 mm 1 mps 761 mmHg 61%
    10:00 +26°C° 0 mm 2 mps 761 mmHg 50%
    11:00 +28°C° 0 mm 2 mps 760 mmHg 45%
    12:00 +29°C° 0 mm 2 mps 760 mmHg 40%
    13:00 +31°C° 0 mm 2 mps 760 mmHg 35%
    14:00 +31°C° 0 mm 2 mps 759 mmHg 35%
    15:00 +31°C° 0 mm 3 mps 759 mmHg 36%
    16:00 +31°C° 0 mm 3 mps 758 mmHg 36%
    17:00 +29°C° 0 mm 3 mps 758 mmHg 44%
    18:00 +27°C° 0 mm 2 mps 759 mmHg 51%
    19:00 +25°C° 0 mm 2 mps 759 mmHg 59%
    20:00 +23°C° 0 mm 2 mps 759 mmHg 69%
    21:00 +21°C° 0 mm 1 mps 759 mmHg 79%
    22:00 +18°C° 0 mm 1 mps 759 mmHg 89%
    23:00 +18°C° 0 mm 1 mps 759 mmHg 91%
    Show more